Voltar ao catálogo

NOAA 16 DEB

AtivoSSO
NORAD 41428·DEBRIS·🇺🇸 United States

Lançado Sep 21, 2000 de Vandenberg Space Force Base

Loading…

Próximas Passagens (próximas 24 horas)

TLE

AtualizadoSource: Space-Track

Época: Sep 11, 2026, 19:18 UTC

1 41428U 00055LH  26254.80459404  .00003392  00000-0  11145-2 0  9993
2 41428  98.8364  19.5376 0013472 248.9988 110.9758 14.38925168546783

Acompanhe NOAA 16 DEB em tempo real com AllMySat

Download on the App Store